PRIMDA Weather Reports


time (UTC)temp
C
wind
direction
speed
KPH
gust
KPH
rain 1hr
cm
rain 24hr
cm
rain mn
cm
humidity
%
barometer
mb
20260507131707 8 270 22.5 0.0 0.00 0.00 0.00 93
20260507121606 8 260 19.3 0.0 0.00 0.00 0.00 93
20260507111610 8 270 14.5 32.2 0.00 0.00 0.00 87
20260507101806 10 230 11.3 0.0 0.00 0.00 0.00 81
20260507091606 8 260 14.5 0.0 0.00 0.00 0.00 93
20260507081606 8 260 19.3 35.4 0.00 0.00 0.00 87
20260507071607 7 260 22.5 0.0 0.00 0.00 0.00 93
20260507061606 7 260 19.3 0.0 0.00 0.00 0.00 99
20260507051605 7 250 19.3 0.0 0.00 0.00 0.00 93
20260507041808 7 250 19.3 0.0 0.00 0.00 0.00 93
20260507031610 7 250 14.5 0.0 0.00 0.00 0.00 99
20260507021605 7 270 14.5 0.0 0.00 0.00 0.00 99
20260507011706 8 270 22.5 38.6 0.00 0.00 0.00 93
20260507001606 8 250 11.3 0.0 0.00 0.00 0.00 93
20260506231606 8 260 19.3 0.0 0.00 0.00 0.00 93
20260506221806 8 280 11.3 0.0 0.00 0.00 0.00 93
20260506211606 8 280 14.5 0.0 0.00 0.00 0.00 93
20260506201606 10 230 8.0 0.0 0.00 0.00 0.00 93
20260506191612 11 340 11.3 0.0 0.00 0.00 0.00 81
20260506181606 12 150 3.2 0.0 0.00 0.00 0.00 71
20260506171606 13 80 11.3 0.0 0.00 0.00 0.00 67
20260506161806 16 20 8.0 0.0 0.00 0.00 0.00 59
20260506151606 16 360 8.0 0.0 0.00 0.00 0.00 59
20260506141607 16 70 3.2 0.0 0.00 0.00 0.00 59